Overview Statistics Trail Chart Weather Telemetry Raw packets
 

This is the latest recevied weather packets stored in our database for station/object JH7UAX-10. If no packets are shown the sender has not sent any weather packets the latest 10 day(s).

<< 5 6 7 8 9 10 11 >>
Time Temp. Humidity Pressure Rain* Wind** Luminosity Snow
1788376454 22.22° C 98% 1023 hPa 1.78 mm - - -
1788375554 22.78° C 98% 1022.7 hPa 0.76 mm - - -
1788374655 22.78° C 98% 1022.6 hPa 0.76 mm - - -
1788373755 22.78° C 98% 1022.7 hPa 2.29 mm - - -
1788372855 22.78° C 98% 1022.5 hPa 2.29 mm - - -
1788371954 23.33° C 98% 1022.6 hPa 2.03 mm - - -
1788371053 22.78° C 98% 1022.5 hPa 1.27 mm - - -
1788370155 22.78° C 99% 1022.7 hPa 0 mm - - -
1788369254 22.78° C 98% 1022.8 hPa 0 mm - - -
1788368354 22.78° C 98% 1023 hPa 0 mm - - -
1788367471 22.78° C 98% 1022.6 hPa 0 mm - - -
1788366569 22.22° C 98% 1022.6 hPa 0 mm - - -
1788365654 22.22° C 98% 1022.5 hPa 0 mm - - -
1788364770 22.22° C 98% 1022.7 hPa 1.78 mm - - -
1788363853 22.22° C 98% 1022.8 hPa 5.59 mm - - -
1788362953 22.22° C 98% 1022.6 hPa 12.45 mm - - -
1788362054 22.22° C 98% 1022.9 hPa 24.38 mm - - -
1788361169 22.22° C 98% 1023.1 hPa 25.91 mm - - -
1788360254 22.22° C 97% 1022.9 hPa 21.84 mm - - -
1788359354 22.22° C 97% 1023.3 hPa 14.99 mm - - -
1788358455 22.78° C 97% 1023.8 hPa 3.3 mm - - -
1788357555 22.78° C 97% 1023.2 hPa 0 mm - - -
1788356670 22.78° C 97% 1023.5 hPa 0.25 mm - - -
1788354869 22.78° C 97% 1023.7 hPa 3.05 mm - - -
1788353970 22.78° C 97% 1023.8 hPa 5.33 mm - - -

* Rain latest hour (hover to see other rain measurements)
** Current wind speed in m/s (hover to see current wind gust speed)